EJU7695 LPPT-GVAC

Flight info

Callsign EJU7695
Flight time 3h 37m
Altitude 33000
Route ULVOT DCT BEXAL UN866 KONBA/N0456F350 DCT GURKA DCT BRICK DCT GOMER/N0448F340 N866 TENPA DCT PINPO PINPO1F
Aircraft A21N/M-SDE2E3FGHIJ1RWXYZ/LB1

Departure

Time 2026-04-16 21:15
Airport Lisbon Humberto Delgado Airport (LPPT)

Arrival

Time 2026-04-17 00:53
Airport Amílcar Cabral International Airport (GVAC)
Time Latitude Longitude Altitude Speed Heading
2026-04-16 20:52 38.77429 -9.13145 343 ft 0 kts 78°
2026-04-16 21:03 38.77426 -9.13166 352 ft 4 kts 78°
2026-04-16 21:04 38.77420 -9.13199 354 ft 4 kts 69°
2026-04-16 21:04 38.77405 -9.13223 354 ft 4 kts 39°
2026-04-16 21:04 38.77396 -9.13240 343 ft 4 kts 80°
2026-04-16 21:04 38.77399 -9.13267 352 ft 4 kts 141°
2026-04-16 21:05 38.77422 -9.13277 353 ft 4 kts 169°
2026-04-16 21:05 38.77428 -9.13279 351 ft 1 kts 168°
2026-04-16 21:07 38.77425 -9.13278 343 ft 2 kts 168°
2026-04-16 21:08 38.77405 -9.13273 353 ft 4 kts 169°
2026-04-16 21:08 38.77367 -9.13267 343 ft 7 kts 185°
2026-04-16 21:08 38.77329 -9.13310 345 ft 8 kts 245°
2026-04-16 21:08 38.77316 -9.13378 352 ft 5 kts 258°
2026-04-16 21:09 38.77315 -9.13385 347 ft 0 kts 258°
2026-04-16 21:09 38.77313 -9.13398 348 ft 3 kts 258°
2026-04-16 21:10 38.77307 -9.13434 353 ft 5 kts 257°
2026-04-16 21:10 38.77297 -9.13492 351 ft 8 kts 257°
2026-04-16 21:10 38.77282 -9.13574 354 ft 11 kts 258°
2026-04-16 21:10 38.77266 -9.13679 359 ft 13 kts 260°
2026-04-16 21:11 38.77247 -9.13804 363 ft 15 kts 256°
2026-04-16 21:11 38.77159 -9.13886 359 ft 17 kts 202°
2026-04-16 21:11 38.77115 -9.13924 358 ft 5 kts 243°
2026-04-16 21:11 38.77119 -9.13973 362 ft 6 kts 289°
2026-04-16 21:12 38.77119 -9.13975 358 ft 0 kts 290°
2026-04-16 21:12 38.77120 -9.13977 358 ft 1 kts 290°
2026-04-16 21:12 38.77126 -9.13999 361 ft 4 kts 290°
2026-04-16 21:13 38.77139 -9.14044 360 ft 7 kts 290°
2026-04-16 21:13 38.77161 -9.14108 361 ft 9 kts 322°
2026-04-16 21:13 38.77188 -9.14097 360 ft 1 kts 13°
2026-04-16 21:13 38.77190 -9.14095 360 ft 0 kts 20°
2026-04-16 21:14 38.77213 -9.14084 363 ft 22 kts 21°
2026-04-16 21:15 38.77572 -9.13887 371 ft 89 kts 22°
2026-04-16 21:15 38.78334 -9.13486 371 ft 145 kts 21°
2026-04-16 21:15 38.79351 -9.12926 638 ft 163 kts 20°
2026-04-16 21:15 38.80375 -9.12272 1255 ft 168 kts 27°
2026-04-16 21:16 38.81438 -9.11439 1591 ft 190 kts 29°
2026-04-16 21:16 38.82638 -9.10549 2050 ft 207 kts 28°
2026-04-16 21:16 38.83949 -9.09593 2386 ft 230 kts 29°
2026-04-16 21:16 38.84909 -9.08899 2599 ft 246 kts 29°
2026-04-16 21:17 38.86443 -9.07747 3098 ft 261 kts 35°
2026-04-16 21:17 38.87715 -9.06075 3733 ft 266 kts 62°
2026-04-16 21:17 38.88255 -9.03824 4398 ft 267 kts 90°
2026-04-16 21:17 38.87920 -9.01489 5089 ft 268 kts 116°
2026-04-16 21:18 38.87003 -8.99401 5800 ft 270 kts 126°
2026-04-16 21:18 38.85717 -8.97658 6485 ft 270 kts 147°
2026-04-16 21:18 38.84006 -8.96700 7099 ft 271 kts 171°
2026-04-16 21:18 38.82128 -8.96734 7725 ft 272 kts 195°
2026-04-16 21:19 38.80366 -8.97576 8403 ft 275 kts 205°
2026-04-16 21:19 38.78607 -8.98612 9113 ft 278 kts 205°
2026-04-16 21:19 38.76828 -8.99638 9829 ft 281 kts 205°
2026-04-16 21:19 38.75017 -9.00653 10406 ft 290 kts 205°
2026-04-16 21:20 38.73105 -9.01704 10698 ft 309 kts 204°
2026-04-16 21:20 38.71067 -9.02811 10958 ft 326 kts 204°
2026-04-16 21:20 38.68923 -9.03964 11219 ft 343 kts 204°
2026-04-16 21:20 38.66690 -9.05214 11504 ft 359 kts 210°
2026-04-16 21:21 38.64568 -9.06998 11774 ft 372 kts 217°
2026-04-16 21:21 38.62437 -9.08996 12041 ft 386 kts 217°
2026-04-16 21:21 38.60240 -9.11054 12321 ft 397 kts 217°
2026-04-16 21:21 38.57995 -9.13137 12725 ft 402 kts 217°
2026-04-16 21:22 38.55716 -9.15236 13198 ft 405 kts 217°
2026-04-16 21:22 38.53421 -9.17334 13681 ft 409 kts 216°
2026-04-16 21:22 38.51094 -9.19454 14150 ft 411 kts 217°
2026-04-16 21:22 38.48754 -9.21579 14532 ft 414 kts 216°
2026-04-16 21:23 38.46396 -9.23714 14949 ft 416 kts 216°
2026-04-16 21:23 38.44030 -9.25856 15428 ft 418 kts 216°
2026-04-16 21:23 38.41667 -9.28003 15848 ft 421 kts 216°
2026-04-16 21:23 38.39293 -9.30161 16240 ft 422 kts 216°
2026-04-16 21:24 38.36910 -9.32328 16614 ft 424 kts 216°
2026-04-16 21:24 38.34505 -9.34513 16947 ft 427 kts 216°
2026-04-16 21:24 38.32033 -9.36749 17313 ft 429 kts 216°
2026-04-16 21:24 38.29594 -9.38953 17698 ft 431 kts 216°
2026-04-16 21:25 38.27170 -9.41136 18029 ft 433 kts 216°
2026-04-16 21:25 38.24682 -9.43383 18443 ft 434 kts 216°
2026-04-16 21:25 38.22249 -9.45577 18805 ft 434 kts 216°
2026-04-16 21:25 38.19783 -9.47798 19207 ft 434 kts 216°
2026-04-16 21:26 38.17333 -9.50005 19723 ft 431 kts 216°
2026-04-16 21:26 38.14887 -9.52213 20158 ft 431 kts 216°
2026-04-16 21:26 38.12445 -9.54415 20621 ft 431 kts 215°
2026-04-16 21:26 38.09988 -9.56623 20944 ft 434 kts 215°
2026-04-16 21:27 38.07518 -9.58836 21212 ft 438 kts 215°
2026-04-16 21:27 38.05016 -9.61076 21596 ft 440 kts 215°
2026-04-16 21:27 38.02514 -9.63317 21981 ft 442 kts 215°
2026-04-16 21:27 37.99993 -9.65572 22332 ft 444 kts 215°
2026-04-16 21:28 37.97462 -9.67833 22748 ft 446 kts 215°
2026-04-16 21:28 37.94921 -9.70106 23082 ft 449 kts 215°
2026-04-16 21:28 37.92355 -9.72397 23439 ft 452 kts 215°
2026-04-16 21:28 37.89790 -9.74689 23812 ft 454 kts 215°
2026-04-16 21:29 37.87199 -9.76997 24104 ft 456 kts 214°
2026-04-16 21:29 37.84600 -9.79305 24460 ft 456 kts 214°
2026-04-16 21:29 37.82001 -9.81614 24755 ft 458 kts 215°
2026-04-16 21:29 37.79383 -9.83946 25054 ft 460 kts 215°
2026-04-16 21:30 37.76774 -9.86272 25415 ft 459 kts 214°
2026-04-16 21:30 37.74154 -9.88603 25634 ft 462 kts 214°
2026-04-16 21:30 37.71521 -9.90941 25901 ft 463 kts 214°
2026-04-16 21:30 37.68882 -9.93277 26157 ft 465 kts 214°
2026-04-16 21:31 37.66221 -9.95629 26344 ft 467 kts 214°
2026-04-16 21:31 37.63566 -9.97976 26581 ft 467 kts 214°
2026-04-16 21:31 37.60901 -10.00338 26777 ft 469 kts 214°
2026-04-16 21:31 37.58247 -10.02736 27005 ft 468 kts 215°
2026-04-16 21:32 37.55611 -10.05129 27231 ft 468 kts 215°
2026-04-16 21:32 37.52968 -10.07521 27431 ft 468 kts 215°
2026-04-16 21:32 37.50319 -10.09911 27655 ft 468 kts 215°
2026-04-16 21:32 37.47675 -10.12294 27830 ft 468 kts 215°
2026-04-16 21:33 37.45019 -10.14679 28061 ft 467 kts 214°
2026-04-16 21:33 37.42373 -10.17052 28295 ft 467 kts 215°
2026-04-16 21:33 37.39740 -10.19417 28498 ft 467 kts 215°
2026-04-16 21:33 37.37099 -10.21790 28754 ft 465 kts 215°
2026-04-16 21:34 37.34460 -10.24157 28945 ft 466 kts 215°
2026-04-16 21:34 37.31832 -10.26509 29173 ft 465 kts 215°
2026-04-16 21:34 37.29193 -10.28868 29373 ft 464 kts 215°
2026-04-16 21:34 37.26563 -10.31214 29582 ft 464 kts 215°
2026-04-16 21:35 37.23930 -10.33558 29810 ft 463 kts 215°
2026-04-16 21:35 37.21305 -10.35899 30007 ft 463 kts 215°
2026-04-16 21:35 37.18685 -10.38240 30225 ft 462 kts 215°
2026-04-16 21:35 37.16063 -10.40579 30407 ft 462 kts 215°
2026-04-16 21:36 37.13448 -10.42906 30560 ft 462 kts 215°
2026-04-16 21:36 37.10882 -10.45191 30738 ft 461 kts 215°
2026-04-16 21:36 37.08250 -10.47524 30886 ft 461 kts 215°
2026-04-16 21:36 37.05629 -10.49844 31068 ft 460 kts 215°
2026-04-16 21:37 37.03048 -10.52128 31432 ft 454 kts 215°
2026-04-16 21:37 37.00490 -10.54396 31895 ft 448 kts 215°
2026-04-16 21:37 36.97953 -10.56641 32273 ft 444 kts 215°
2026-04-16 21:37 36.95426 -10.58873 32446 ft 445 kts 215°
2026-04-16 21:38 36.92890 -10.61106 32583 ft 447 kts 216°
2026-04-16 21:38 36.90347 -10.63345 32816 ft 446 kts 215°
2026-04-16 21:38 36.87811 -10.65583 32994 ft 445 kts 216°
2026-04-16 21:38 36.85291 -10.67809 33217 ft 445 kts 216°
2026-04-16 21:39 36.82761 -10.70041 33245 ft 448 kts 216°
2026-04-16 21:39 36.80231 -10.72274 33234 ft 437 kts 216°
2026-04-16 21:39 36.77751 -10.74466 33217 ft 440 kts 216°
2026-04-16 21:40 36.72721 -10.78890 33209 ft 448 kts 216°
2026-04-16 21:40 36.67565 -10.83410 33206 ft 452 kts 216°
2026-04-16 21:41 36.62464 -10.87878 33206 ft 453 kts 216°
2026-04-16 21:41 36.57291 -10.92392 33206 ft 451 kts 215°
2026-04-16 21:42 36.52142 -10.96875 33204 ft 453 kts 216°
2026-04-16 21:42 36.46994 -11.01355 33205 ft 455 kts 216°
2026-04-16 21:43 36.41807 -11.05880 33206 ft 457 kts 216°
2026-04-16 21:43 36.36611 -11.10385 33203 ft 456 kts 216°
2026-04-16 21:44 36.31403 -11.14898 33202 ft 455 kts 216°
2026-04-16 21:44 36.26214 -11.19403 33204 ft 456 kts 216°
2026-04-16 21:45 36.20998 -11.23914 33200 ft 457 kts 216°
2026-04-16 21:45 36.15764 -11.28414 33204 ft 458 kts 216°
2026-04-16 21:46 36.10531 -11.32902 33201 ft 458 kts 215°
2026-04-16 21:46 36.05302 -11.37385 33203 ft 457 kts 216°
2026-04-16 21:47 36.00087 -11.41891 33204 ft 456 kts 216°
2026-04-16 21:47 35.94883 -11.46375 33201 ft 457 kts 216°
2026-04-16 21:48 35.89690 -11.50962 33202 ft 460 kts 217°
2026-04-16 21:48 35.84490 -11.55543 33200 ft 460 kts 216°
2026-04-16 21:49 35.79269 -11.60109 33201 ft 459 kts 217°
2026-04-16 21:49 35.74051 -11.64681 33199 ft 459 kts 217°
2026-04-16 21:50 35.68831 -11.69226 33201 ft 460 kts 216°
2026-04-16 21:50 35.63463 -11.73512 33199 ft 463 kts 208°
2026-04-16 21:51 35.57655 -11.76908 33205 ft 463 kts 207°
2026-04-16 21:51 35.51856 -11.80331 33201 ft 462 kts 207°
2026-04-16 21:52 35.46112 -11.83784 33202 ft 462 kts 208°
2026-04-16 21:52 35.40332 -11.87256 33201 ft 463 kts 207°
2026-04-16 21:53 35.34511 -11.90731 33199 ft 463 kts 207°
2026-04-16 21:53 35.28773 -11.94155 33203 ft 462 kts 207°
2026-04-16 21:54 35.23001 -11.97594 33201 ft 462 kts 207°
2026-04-16 21:54 35.17194 -12.01059 33202 ft 463 kts 207°
2026-04-16 21:55 35.11394 -12.04515 33197 ft 465 kts 208°
2026-04-16 21:55 35.05644 -12.07928 33198 ft 458 kts 207°
2026-04-16 21:56 34.99914 -12.11323 33194 ft 457 kts 208°
2026-04-16 21:56 34.94188 -12.14712 33197 ft 458 kts 208°
2026-04-16 21:57 34.88455 -12.18097 33187 ft 458 kts 208°
2026-04-16 21:57 34.82717 -12.21483 33188 ft 459 kts 208°
2026-04-16 21:58 34.76961 -12.24868 33188 ft 459 kts 208°
2026-04-16 21:58 34.71204 -12.28247 33185 ft 459 kts 208°
2026-04-16 21:59 34.65449 -12.31627 33188 ft 459 kts 208°
2026-04-16 21:59 34.59701 -12.34993 33184 ft 459 kts 208°
2026-04-16 22:00 34.54929 -12.37787 33186 ft 458 kts 208°
2026-04-16 22:00 34.48254 -12.41685 33183 ft 457 kts 208°
2026-04-16 22:01 34.42552 -12.45011 33183 ft 455 kts 208°
2026-04-16 22:01 34.36856 -12.48328 33182 ft 455 kts 208°
2026-04-16 22:02 34.31158 -12.51645 33181 ft 454 kts 208°
2026-04-16 22:02 34.25450 -12.54961 33183 ft 454 kts 208°
2026-04-16 22:03 34.19753 -12.58259 33183 ft 455 kts 208°
2026-04-16 22:03 34.14040 -12.61567 33180 ft 455 kts 208°
2026-04-16 22:04 34.09305 -12.64302 33180 ft 454 kts 208°
2026-04-16 22:04 34.03588 -12.67603 33180 ft 456 kts 208°
2026-04-16 22:05 33.97867 -12.70899 33180 ft 456 kts 208°
2026-04-16 22:05 33.92146 -12.74181 33177 ft 456 kts 208°
2026-04-16 22:06 33.86420 -12.77488 33179 ft 456 kts 208°
2026-04-16 22:06 33.77856 -12.82393 33171 ft 455 kts 208°
2026-04-16 22:07 33.72148 -12.85667 33171 ft 455 kts 208°
2026-04-16 22:07 33.66417 -12.88926 33171 ft 455 kts 208°
2026-04-16 22:08 33.60694 -12.92183 33174 ft 455 kts 208°
2026-04-16 22:08 33.54975 -12.95458 33174 ft 455 kts 208°
2026-04-16 22:09 33.49245 -12.98726 33168 ft 457 kts 209°
2026-04-16 22:09 33.43517 -13.01993 33171 ft 457 kts 209°
2026-04-16 22:10 33.37761 -13.05257 33167 ft 457 kts 209°
2026-04-16 22:10 33.32043 -13.08495 33173 ft 457 kts 209°
2026-04-16 22:11 33.26299 -13.11747 33169 ft 457 kts 209°
2026-04-16 22:11 33.20543 -13.14999 33164 ft 455 kts 210°
2026-04-16 22:12 33.14821 -13.18217 33165 ft 454 kts 210°
2026-04-16 22:12 33.09095 -13.21446 33169 ft 454 kts 210°
2026-04-16 22:13 33.03397 -13.24659 33168 ft 454 kts 210°
2026-04-16 22:13 32.97669 -13.27875 33173 ft 455 kts 210°
2026-04-16 22:14 32.91976 -13.31071 33162 ft 455 kts 210°
2026-04-16 22:14 32.86233 -13.34288 33168 ft 455 kts 210°
2026-04-16 22:15 32.80494 -13.37489 33169 ft 455 kts 210°
2026-04-16 22:15 32.74744 -13.40689 33168 ft 455 kts 210°
2026-04-16 22:16 32.69031 -13.43884 33166 ft 455 kts 210°
2026-04-16 22:16 32.63303 -13.47087 33163 ft 455 kts 210°
2026-04-16 22:17 32.57567 -13.50277 33164 ft 455 kts 210°
2026-04-16 22:17 32.51891 -13.53430 33167 ft 452 kts 210°
2026-04-16 22:18 32.46180 -13.56594 33166 ft 452 kts 210°
2026-04-16 22:18 32.40472 -13.59755 33146 ft 452 kts 210°
2026-04-16 22:19 32.34753 -13.62917 33158 ft 453 kts 210°
2026-04-16 22:19 32.29065 -13.66055 33158 ft 453 kts 210°
2026-04-16 22:20 32.23346 -13.69207 33159 ft 453 kts 210°
2026-04-16 22:20 32.17659 -13.72339 33163 ft 453 kts 210°
2026-04-16 22:21 32.11934 -13.75486 33147 ft 454 kts 210°
2026-04-16 22:21 32.06201 -13.78645 33158 ft 454 kts 210°
2026-04-16 22:22 32.00451 -13.81800 33157 ft 455 kts 210°
2026-04-16 22:22 31.94751 -13.84919 33154 ft 455 kts 210°
2026-04-16 22:23 31.89011 -13.88044 33165 ft 452 kts 210°
2026-04-16 22:23 31.83304 -13.91166 33149 ft 452 kts 210°
2026-04-16 22:24 31.77599 -13.94289 33158 ft 453 kts 210°
2026-04-16 22:24 31.71875 -13.97404 33154 ft 453 kts 210°
2026-04-16 22:25 31.66193 -14.00497 33155 ft 453 kts 210°
2026-04-16 22:25 31.60467 -14.03609 33151 ft 453 kts 210°
2026-04-16 22:26 31.54736 -14.06710 33146 ft 453 kts 210°
2026-04-16 22:26 31.49012 -14.09816 33149 ft 453 kts 210°
2026-04-16 22:27 31.43278 -14.12920 33150 ft 453 kts 210°
2026-04-16 22:27 31.37581 -14.15990 33148 ft 453 kts 210°
2026-04-16 22:28 31.31855 -14.19083 33148 ft 453 kts 210°
2026-04-16 22:28 31.26113 -14.22184 33137 ft 453 kts 210°
2026-04-16 22:29 31.20412 -14.25252 33143 ft 451 kts 209°
2026-04-16 22:29 31.14749 -14.28294 33144 ft 451 kts 209°
2026-04-16 22:30 31.09068 -14.31344 33143 ft 451 kts 209°
2026-04-16 22:30 31.03317 -14.34423 33144 ft 451 kts 209°
2026-04-16 22:31 30.97652 -14.37453 33135 ft 451 kts 209°
2026-04-16 22:31 30.91972 -14.40491 33140 ft 451 kts 209°
2026-04-16 22:32 30.86049 -14.43030 33141 ft 455 kts 202°
2026-04-16 22:32 30.80005 -14.45250 33138 ft 455 kts 202°
2026-04-16 22:33 30.73965 -14.47469 33142 ft 455 kts 202°
2026-04-16 22:33 30.67938 -14.49685 33125 ft 455 kts 202°
2026-04-16 22:34 30.61885 -14.51914 33134 ft 456 kts 202°
2026-04-16 22:34 30.55832 -14.54128 33132 ft 456 kts 202°
2026-04-16 22:35 30.49796 -14.56347 33132 ft 456 kts 202°
2026-04-16 22:35 30.43738 -14.58568 33133 ft 455 kts 202°
2026-04-16 22:36 30.37681 -14.60787 33123 ft 456 kts 202°
2026-04-16 22:36 30.31645 -14.62999 33128 ft 457 kts 202°
2026-04-16 22:37 30.25576 -14.65214 33127 ft 457 kts 202°
2026-04-16 22:37 30.19510 -14.67424 33127 ft 457 kts 202°
2026-04-16 22:38 30.13455 -14.69627 33128 ft 457 kts 202°
2026-04-16 22:38 30.07416 -14.71813 33121 ft 455 kts 202°
2026-04-16 22:39 30.01350 -14.74018 33123 ft 455 kts 202°
2026-04-16 22:39 29.95311 -14.76218 33123 ft 455 kts 202°
2026-04-16 22:40 29.89314 -14.78393 33121 ft 455 kts 202°
2026-04-16 22:40 29.83223 -14.80591 33120 ft 455 kts 202°
2026-04-16 22:41 29.77171 -14.82773 33115 ft 455 kts 202°
2026-04-16 22:41 29.71119 -14.84951 33115 ft 455 kts 202°
2026-04-16 22:42 29.65081 -14.87132 33112 ft 455 kts 202°
2026-04-16 22:42 29.59027 -14.89314 33112 ft 455 kts 202°
2026-04-16 22:43 29.52994 -14.91488 33098 ft 456 kts 202°
2026-04-16 22:43 29.46978 -14.93639 33117 ft 456 kts 202°
2026-04-16 22:44 29.40898 -14.95822 33108 ft 454 kts 202°
2026-04-16 22:44 29.34908 -14.97974 33109 ft 454 kts 202°
2026-04-16 22:45 29.28854 -15.00134 33103 ft 454 kts 202°
2026-04-16 22:45 29.22826 -15.02288 33096 ft 454 kts 202°
2026-04-16 22:46 29.16792 -15.04439 33101 ft 454 kts 202°
2026-04-16 22:46 29.10771 -15.06589 33108 ft 454 kts 202°
2026-04-16 22:47 29.04729 -15.08738 33104 ft 454 kts 201°
2026-04-16 22:47 28.98688 -15.10871 33099 ft 454 kts 202°
2026-04-16 22:48 28.92658 -15.13022 33094 ft 455 kts 202°
2026-04-16 22:48 28.86619 -15.15164 33097 ft 455 kts 201°
2026-04-16 22:49 28.80568 -15.17308 33093 ft 455 kts 202°
2026-04-16 22:49 28.75538 -15.19090 33094 ft 455 kts 201°
2026-04-16 22:50 28.69496 -15.21217 33092 ft 455 kts 202°
2026-04-16 22:50 28.63442 -15.23357 33085 ft 456 kts 201°
2026-04-16 22:51 28.57373 -15.25500 33094 ft 456 kts 201°
2026-04-16 22:51 28.51313 -15.27636 33095 ft 456 kts 201°
2026-04-16 22:52 28.45244 -15.29764 33089 ft 456 kts 201°
2026-04-16 22:52 28.39206 -15.31874 33089 ft 456 kts 201°
2026-04-16 22:53 28.33115 -15.34025 33082 ft 457 kts 201°
2026-04-16 22:53 28.27039 -15.36157 33093 ft 457 kts 201°
2026-04-16 22:54 28.20967 -15.38284 33088 ft 457 kts 201°
2026-04-16 22:54 28.14893 -15.40405 33088 ft 457 kts 201°
2026-04-16 22:55 28.08835 -15.42567 33081 ft 455 kts 205°
2026-04-16 22:55 28.03422 -15.45975 33082 ft 447 kts 217°
2026-04-16 22:56 27.98209 -15.49879 33080 ft 447 kts 217°
2026-04-16 22:56 27.93043 -15.53709 33082 ft 447 kts 217°
2026-04-16 22:57 27.87832 -15.57537 33073 ft 447 kts 217°
2026-04-16 22:57 27.82616 -15.61360 33070 ft 447 kts 217°
2026-04-16 22:58 27.77404 -15.65184 33062 ft 446 kts 217°
2026-04-16 22:58 27.72203 -15.68993 33047 ft 446 kts 217°
2026-04-16 22:59 27.66991 -15.72797 33045 ft 446 kts 217°
2026-04-16 22:59 27.61784 -15.76590 33043 ft 446 kts 217°
2026-04-16 23:00 27.56586 -15.80398 33046 ft 445 kts 217°
2026-04-16 23:00 27.51394 -15.84194 33048 ft 445 kts 217°
2026-04-16 23:01 27.46179 -15.87994 33042 ft 446 kts 217°
2026-04-16 23:01 27.40969 -15.91787 33037 ft 446 kts 217°
2026-04-16 23:02 27.35751 -15.95583 33040 ft 447 kts 217°
2026-04-16 23:02 27.30527 -15.99369 33039 ft 447 kts 217°
2026-04-16 23:03 27.25318 -16.03147 33038 ft 445 kts 216°
2026-04-16 23:03 27.20108 -16.06915 33040 ft 445 kts 216°
2026-04-16 23:04 27.14902 -16.10673 33038 ft 445 kts 216°
2026-04-16 23:04 27.09674 -16.14423 33028 ft 446 kts 216°
2026-04-16 23:05 27.04448 -16.18191 33035 ft 447 kts 216°
2026-04-16 23:05 26.99238 -16.21979 33038 ft 447 kts 216°
2026-04-16 23:06 26.94009 -16.25754 33040 ft 447 kts 216°
2026-04-16 23:06 26.88781 -16.29514 33039 ft 447 kts 216°
2026-04-16 23:07 26.83541 -16.33269 33034 ft 447 kts 216°
2026-04-16 23:07 26.78341 -16.36985 33037 ft 446 kts 216°
2026-04-16 23:08 26.73105 -16.40733 33034 ft 446 kts 216°
2026-04-16 23:08 26.67876 -16.44468 33038 ft 446 kts 216°
2026-04-16 23:09 26.62639 -16.48203 33036 ft 446 kts 216°
2026-04-16 23:09 26.57412 -16.51937 33034 ft 446 kts 216°
2026-04-16 23:10 26.52177 -16.55665 33035 ft 446 kts 216°
2026-04-16 23:10 26.46945 -16.59389 33021 ft 446 kts 216°
2026-04-16 23:11 26.41699 -16.63101 33033 ft 447 kts 216°
2026-04-16 23:11 26.36443 -16.66808 33036 ft 447 kts 216°
2026-04-16 23:12 26.31205 -16.70523 33033 ft 446 kts 216°
2026-04-16 23:12 26.25979 -16.74230 33034 ft 445 kts 216°
2026-04-16 23:13 26.20769 -16.77930 33034 ft 445 kts 216°
2026-04-16 23:13 26.15511 -16.81651 33022 ft 446 kts 216°
2026-04-16 23:14 26.10285 -16.85365 33024 ft 447 kts 216°
2026-04-16 23:14 26.05044 -16.89079 33024 ft 447 kts 216°
2026-04-16 23:15 25.97166 -16.94646 33019 ft 447 kts 216°
2026-04-16 23:16 25.91916 -16.98334 33021 ft 447 kts 216°
2026-04-16 23:16 25.86668 -17.02034 33018 ft 447 kts 216°
2026-04-16 23:17 25.81424 -17.05740 33018 ft 447 kts 216°
2026-04-16 23:17 25.76169 -17.09429 33018 ft 447 kts 216°
2026-04-16 23:18 25.70909 -17.13098 33019 ft 447 kts 216°
2026-04-16 23:18 25.65652 -17.16781 33021 ft 447 kts 216°
2026-04-16 23:19 25.60417 -17.20477 33011 ft 447 kts 216°
2026-04-16 23:19 25.55181 -17.24160 33001 ft 438 kts 216°
2026-04-16 23:20 25.50090 -17.27725 33001 ft 435 kts 216°
2026-04-16 23:20 25.45014 -17.31275 33009 ft 430 kts 216°
2026-04-16 23:21 25.39933 -17.34815 33020 ft 436 kts 216°
2026-04-16 23:21 25.34741 -17.38436 33021 ft 446 kts 216°
2026-04-16 23:22 25.29488 -17.42094 33012 ft 445 kts 216°
2026-04-16 23:22 25.24252 -17.45735 33007 ft 445 kts 216°
2026-04-16 23:23 25.19012 -17.49378 32997 ft 445 kts 216°
2026-04-16 23:23 25.13764 -17.53020 33006 ft 445 kts 216°
2026-04-16 23:24 25.08511 -17.56661 33008 ft 445 kts 216°
2026-04-16 23:24 25.03271 -17.60304 33003 ft 445 kts 216°
2026-04-16 23:25 24.98019 -17.63935 33006 ft 445 kts 216°
2026-04-16 23:25 24.92780 -17.67553 33004 ft 445 kts 216°
2026-04-16 23:26 24.87524 -17.71197 33004 ft 445 kts 216°
2026-04-16 23:26 24.82271 -17.74809 33000 ft 445 kts 216°
2026-04-16 23:27 24.77037 -17.78407 32999 ft 443 kts 216°
2026-04-16 23:27 24.71801 -17.82015 32999 ft 443 kts 216°
2026-04-16 23:28 24.66564 -17.85609 32999 ft 443 kts 216°
2026-04-16 23:28 24.61342 -17.89190 33000 ft 444 kts 215°
2026-04-16 23:29 24.56095 -17.92776 33000 ft 443 kts 216°
2026-04-16 23:29 24.50867 -17.96370 32992 ft 443 kts 215°
2026-04-16 23:30 24.45633 -17.99963 32999 ft 443 kts 215°
2026-04-16 23:30 24.40402 -18.03542 33000 ft 443 kts 215°
2026-04-16 23:31 24.35169 -18.07118 32998 ft 443 kts 215°
2026-04-16 23:31 24.29941 -18.10673 32996 ft 442 kts 215°
2026-04-16 23:32 24.24717 -18.14242 32998 ft 442 kts 215°
2026-04-16 23:32 24.19485 -18.17810 32992 ft 442 kts 215°
2026-04-16 23:33 24.14278 -18.21349 32993 ft 442 kts 215°
2026-04-16 23:33 24.09058 -18.24902 32994 ft 442 kts 215°
2026-04-16 23:34 24.03835 -18.28447 32995 ft 442 kts 215°
2026-04-16 23:34 23.98585 -18.31981 32994 ft 442 kts 215°
2026-04-16 23:35 23.94243 -18.34944 32994 ft 442 kts 215°
2026-04-16 23:35 23.89017 -18.38495 32997 ft 442 kts 215°
2026-04-16 23:36 23.83824 -18.41989 32986 ft 442 kts 215°
2026-04-16 23:36 23.78558 -18.45562 32986 ft 442 kts 215°
2026-04-16 23:37 23.73322 -18.49089 32989 ft 442 kts 215°
2026-04-16 23:37 23.68089 -18.52629 32994 ft 442 kts 215°
2026-04-16 23:38 23.62865 -18.56162 32994 ft 442 kts 215°
2026-04-16 23:38 23.57637 -18.59688 33001 ft 442 kts 215°
2026-04-16 23:39 23.52393 -18.63198 32993 ft 442 kts 215°
2026-04-16 23:39 23.47187 -18.66713 32992 ft 442 kts 215°
2026-04-16 23:40 23.41947 -18.70241 32998 ft 442 kts 215°
2026-04-16 23:40 23.36720 -18.73743 32989 ft 442 kts 215°
2026-04-16 23:41 23.31473 -18.77251 32995 ft 442 kts 215°
2026-04-16 23:41 23.26280 -18.80733 32988 ft 442 kts 215°
2026-04-16 23:42 23.21048 -18.84236 32983 ft 442 kts 215°
2026-04-16 23:42 23.15809 -18.87739 32986 ft 442 kts 215°
2026-04-16 23:43 23.10554 -18.91239 32992 ft 442 kts 215°
2026-04-16 23:43 23.05301 -18.94726 32997 ft 442 kts 215°
2026-04-16 23:44 23.00066 -18.98236 33004 ft 442 kts 215°
2026-04-16 23:44 22.94841 -19.01722 33005 ft 442 kts 215°
2026-04-16 23:45 22.89584 -19.05209 32992 ft 442 kts 215°
2026-04-16 23:45 22.84355 -19.08693 32996 ft 440 kts 216°
2026-04-16 23:46 22.79126 -19.12169 32999 ft 441 kts 215°
2026-04-16 23:46 22.73900 -19.15632 32996 ft 440 kts 215°
2026-04-16 23:47 22.68715 -19.19068 32975 ft 440 kts 215°
2026-04-16 23:47 22.63462 -19.22541 32995 ft 441 kts 215°
2026-04-16 23:48 22.58226 -19.26011 32995 ft 441 kts 215°
2026-04-16 23:48 22.52998 -19.29453 32987 ft 439 kts 216°
2026-04-16 23:49 22.47795 -19.32906 32996 ft 439 kts 216°
2026-04-16 23:49 22.42591 -19.36348 32997 ft 439 kts 216°
2026-04-16 23:50 22.37379 -19.39772 32999 ft 439 kts 216°
2026-04-16 23:50 22.32162 -19.43210 32998 ft 439 kts 216°
2026-04-16 23:51 22.26949 -19.46647 32995 ft 439 kts 216°
2026-04-16 23:51 22.21747 -19.50074 32973 ft 438 kts 216°
2026-04-16 23:52 22.16548 -19.53492 32993 ft 437 kts 216°
2026-04-16 23:52 22.11353 -19.56901 32992 ft 437 kts 216°
2026-04-16 23:53 22.06146 -19.60301 32995 ft 437 kts 216°
2026-04-16 23:53 22.00958 -19.63705 32994 ft 437 kts 216°
2026-04-16 23:54 21.95760 -19.67114 32992 ft 437 kts 216°
2026-04-16 23:54 21.90570 -19.70515 32994 ft 437 kts 216°
2026-04-16 23:55 21.85384 -19.73902 32986 ft 436 kts 216°
2026-04-16 23:55 21.80190 -19.77291 32990 ft 436 kts 216°
2026-04-16 23:56 21.75012 -19.80673 32992 ft 436 kts 216°
2026-04-16 23:56 21.69873 -19.84024 32993 ft 436 kts 216°
2026-04-16 23:57 21.64674 -19.87410 32992 ft 436 kts 216°
2026-04-16 23:57 21.59474 -19.90788 32990 ft 436 kts 216°
2026-04-16 23:58 21.54304 -19.94158 32969 ft 436 kts 216°
2026-04-16 23:58 21.49109 -19.97530 32988 ft 435 kts 216°
2026-04-16 23:59 21.43952 -20.00879 32990 ft 435 kts 217°
2026-04-16 23:59 21.38759 -20.04239 32990 ft 435 kts 217°
2026-04-17 00:00 21.33580 -20.07601 32992 ft 435 kts 217°
2026-04-17 00:00 21.28406 -20.10948 32994 ft 434 kts 216°
2026-04-17 00:01 21.23238 -20.14298 32989 ft 434 kts 217°
2026-04-17 00:01 21.18067 -20.17646 32977 ft 434 kts 217°
2026-04-17 00:02 21.12908 -20.20966 32990 ft 433 kts 217°
2026-04-17 00:02 21.07725 -20.24299 32991 ft 433 kts 217°
2026-04-17 00:03 21.02589 -20.27628 32988 ft 433 kts 217°
2026-04-17 00:03 20.97414 -20.30967 32988 ft 433 kts 217°
2026-04-17 00:04 20.92255 -20.34286 32989 ft 433 kts 217°
2026-04-17 00:04 20.87073 -20.37600 32988 ft 433 kts 217°
2026-04-17 00:05 20.81917 -20.40916 32981 ft 432 kts 217°
2026-04-17 00:05 20.76777 -20.44218 32982 ft 432 kts 217°
2026-04-17 00:06 20.71624 -20.47516 32982 ft 432 kts 217°
2026-04-17 00:06 20.66469 -20.50830 32986 ft 431 kts 218°
2026-04-17 00:07 20.61331 -20.54133 32985 ft 431 kts 218°
2026-04-17 00:07 20.56177 -20.57430 32988 ft 432 kts 217°
2026-04-17 00:08 20.51028 -20.60727 32977 ft 432 kts 218°
2026-04-17 00:08 20.45878 -20.64022 32990 ft 431 kts 218°
2026-04-17 00:09 20.40732 -20.67308 32991 ft 432 kts 218°
2026-04-17 00:09 20.35555 -20.70550 32992 ft 433 kts 216°
2026-04-17 00:10 20.30253 -20.73614 32988 ft 434 kts 216°
2026-04-17 00:10 20.24943 -20.76665 32988 ft 434 kts 216°
2026-04-17 00:11 20.19628 -20.79723 32987 ft 434 kts 216°
2026-04-17 00:11 20.14356 -20.82754 32986 ft 434 kts 216°
2026-04-17 00:12 20.09045 -20.85803 32989 ft 434 kts 216°
2026-04-17 00:12 20.03734 -20.88852 32989 ft 434 kts 216°
2026-04-17 00:13 19.98420 -20.91901 32994 ft 434 kts 216°
2026-04-17 00:13 19.93105 -20.94938 32992 ft 434 kts 216°
2026-04-17 00:14 19.87788 -20.97982 32989 ft 434 kts 216°
2026-04-17 00:14 19.82485 -21.01019 32980 ft 434 kts 216°
2026-04-17 00:15 19.77169 -21.04056 33001 ft 433 kts 216°
2026-04-17 00:15 19.71875 -21.07076 32987 ft 433 kts 216°
2026-04-17 00:16 19.66552 -21.10125 32991 ft 433 kts 216°
2026-04-17 00:16 19.61236 -21.13151 32989 ft 434 kts 216°
2026-04-17 00:17 19.55906 -21.16190 32977 ft 434 kts 216°
2026-04-17 00:17 19.50590 -21.19213 32974 ft 433 kts 216°
2026-04-17 00:18 19.45307 -21.22226 32981 ft 434 kts 216°
2026-04-17 00:18 19.39981 -21.25248 32992 ft 434 kts 216°
2026-04-17 00:19 19.34620 -21.28293 32994 ft 434 kts 216°
2026-04-17 00:19 19.29333 -21.31298 32988 ft 434 kts 216°
2026-04-17 00:20 19.23979 -21.34344 32990 ft 434 kts 216°
2026-04-17 00:20 19.18666 -21.37359 32989 ft 434 kts 216°
2026-04-17 00:21 19.13360 -21.40364 32976 ft 435 kts 216°
2026-04-17 00:21 19.08018 -21.43388 32987 ft 436 kts 216°
2026-04-17 00:22 19.00867 -21.47429 32995 ft 436 kts 216°
2026-04-17 00:22 18.95516 -21.50444 32991 ft 435 kts 216°
2026-04-17 00:23 18.90175 -21.53463 32990 ft 435 kts 217°
2026-04-17 00:23 18.84842 -21.56482 32990 ft 436 kts 217°
2026-04-17 00:24 18.79489 -21.59505 32976 ft 437 kts 216°
2026-04-17 00:24 18.74155 -21.62508 32996 ft 437 kts 216°
2026-04-17 00:25 18.68785 -21.65532 32991 ft 437 kts 216°
2026-04-17 00:25 18.63415 -21.68547 32990 ft 437 kts 217°
2026-04-17 00:26 18.58047 -21.71565 32988 ft 437 kts 216°
2026-04-17 00:26 18.52678 -21.74590 32990 ft 437 kts 217°
2026-04-17 00:27 18.47304 -21.77606 32983 ft 438 kts 216°
2026-04-17 00:27 18.41924 -21.80626 32997 ft 439 kts 217°
2026-04-17 00:28 18.36527 -21.83654 32992 ft 439 kts 217°
2026-04-17 00:28 18.31135 -21.86671 32992 ft 439 kts 217°
2026-04-17 00:29 18.25747 -21.89684 32991 ft 439 kts 216°
2026-04-17 00:29 18.20351 -21.92704 32989 ft 439 kts 217°
2026-04-17 00:30 18.14955 -21.95726 32987 ft 439 kts 217°
2026-04-17 00:30 18.09566 -21.98738 32982 ft 439 kts 217°
2026-04-17 00:31 18.04167 -22.01752 32985 ft 439 kts 216°
2026-04-17 00:31 17.98775 -22.04763 32983 ft 439 kts 217°
2026-04-17 00:32 17.93376 -22.07774 32986 ft 439 kts 216°
2026-04-17 00:32 17.87976 -22.10775 32935 ft 434 kts 216°
2026-04-17 00:33 17.85359 -22.12232 31996 ft 436 kts 216°
2026-04-17 00:33 17.82604 -22.13776 30772 ft 446 kts 215°
2026-04-17 00:33 17.79856 -22.15308 29677 ft 450 kts 214°
2026-04-17 00:33 17.77115 -22.16832 28505 ft 453 kts 214°
2026-04-17 00:34 17.74321 -22.18386 27309 ft 458 kts 213°
2026-04-17 00:34 17.71454 -22.19976 26235 ft 459 kts 213°
2026-04-17 00:34 17.68678 -22.21519 25364 ft 458 kts 212°
2026-04-17 00:34 17.65874 -22.23076 24691 ft 454 kts 212°
2026-04-17 00:35 17.63107 -22.24610 24161 ft 446 kts 212°
2026-04-17 00:35 17.60375 -22.26125 23657 ft 452 kts 212°
2026-04-17 00:35 17.57585 -22.27672 23012 ft 446 kts 211°
2026-04-17 00:35 17.54879 -22.29168 22389 ft 438 kts 211°
2026-04-17 00:36 17.52216 -22.30641 21992 ft 430 kts 211°
2026-04-17 00:36 17.49523 -22.32141 21683 ft 440 kts 211°
2026-04-17 00:36 17.46848 -22.33624 21312 ft 430 kts 211°
2026-04-17 00:36 17.44226 -22.35072 20826 ft 429 kts 211°
2026-04-17 00:37 17.41567 -22.36549 20373 ft 429 kts 211°
2026-04-17 00:37 17.38956 -22.37996 19883 ft 418 kts 211°
2026-04-17 00:37 17.36426 -22.39398 19378 ft 411 kts 210°
2026-04-17 00:37 17.33903 -22.40793 18859 ft 403 kts 210°
2026-04-17 00:38 17.31451 -22.42149 18336 ft 396 kts 210°
2026-04-17 00:38 17.29030 -22.43486 17697 ft 392 kts 210°
2026-04-17 00:38 17.26610 -22.44824 17144 ft 393 kts 210°
2026-04-17 00:38 17.24196 -22.46162 16649 ft 392 kts 210°
2026-04-17 00:39 17.21797 -22.47488 16192 ft 390 kts 210°
2026-04-17 00:39 17.19404 -22.48810 15738 ft 388 kts 209°
2026-04-17 00:39 17.17022 -22.50120 15286 ft 386 kts 209°
2026-04-17 00:39 17.14647 -22.51425 14849 ft 385 kts 209°
2026-04-17 00:40 17.12287 -22.52725 14474 ft 384 kts 209°
2026-04-17 00:40 17.09935 -22.54028 14120 ft 383 kts 209°
2026-04-17 00:40 17.07577 -22.55334 13766 ft 382 kts 208°
2026-04-17 00:40 17.05226 -22.56632 13365 ft 381 kts 208°
2026-04-17 00:41 17.02883 -22.57924 12901 ft 379 kts 208°
2026-04-17 00:41 17.00555 -22.59207 12411 ft 377 kts 208°
2026-04-17 00:41 16.98244 -22.60478 12061 ft 376 kts 208°
2026-04-17 00:41 16.95929 -22.61750 11759 ft 375 kts 208°
2026-04-17 00:42 16.93625 -22.63016 11339 ft 374 kts 208°
2026-04-17 00:42 16.91331 -22.64279 10863 ft 372 kts 208°
2026-04-17 00:42 16.89043 -22.65541 10376 ft 371 kts 208°
2026-04-17 00:42 16.86769 -22.66794 9944 ft 369 kts 208°
2026-04-17 00:43 16.84499 -22.68041 9501 ft 367 kts 208°
2026-04-17 00:43 16.82247 -22.69280 9037 ft 365 kts 208°
2026-04-17 00:43 16.80029 -22.70499 8589 ft 365 kts 208°
2026-04-17 00:43 16.77789 -22.71731 8143 ft 364 kts 208°
2026-04-17 00:44 16.75574 -22.72948 7789 ft 354 kts 208°
2026-04-17 00:44 16.73411 -22.74135 7572 ft 341 kts 208°
2026-04-17 00:44 16.71380 -22.75247 7405 ft 328 kts 208°
2026-04-17 00:44 16.69384 -22.76337 7246 ft 316 kts 209°
2026-04-17 00:45 16.67500 -22.77370 7107 ft 303 kts 209°
2026-04-17 00:45 16.65647 -22.78389 6973 ft 292 kts 209°
2026-04-17 00:45 16.63906 -22.79346 6848 ft 280 kts 209°
2026-04-17 00:45 16.62221 -22.80271 6738 ft 269 kts 209°
2026-04-17 00:46 16.60595 -22.81165 6611 ft 258 kts 209°
2026-04-17 00:46 16.58999 -22.82042 6289 ft 256 kts 209°
2026-04-17 00:46 16.57440 -22.82897 5908 ft 257 kts 209°
2026-04-17 00:46 16.55913 -22.83847 5520 ft 256 kts 221°
2026-04-17 00:47 16.54869 -22.85303 5180 ft 249 kts 250°
2026-04-17 00:47 16.54598 -22.87038 4984 ft 238 kts 269°
2026-04-17 00:47 16.54627 -22.88726 4849 ft 226 kts 271°
2026-04-17 00:47 16.54663 -22.90314 4702 ft 212 kts 271°
2026-04-17 00:48 16.54684 -22.91782 4637 ft 195 kts 270°
2026-04-17 00:48 16.54758 -22.93139 4500 ft 182 kts 277°
2026-04-17 00:48 16.55309 -22.94319 4024 ft 188 kts 316°
2026-04-17 00:48 16.56490 -22.94873 3600 ft 191 kts 352°
2026-04-17 00:49 16.57829 -22.94865 3281 ft 192 kts
2026-04-17 00:49 16.59157 -22.94838 2987 ft 190 kts
2026-04-17 00:49 16.60461 -22.94834 2716 ft 186 kts
2026-04-17 00:49 16.61750 -22.94841 2439 ft 182 kts
2026-04-17 00:50 16.62997 -22.94842 2198 ft 174 kts
2026-04-17 00:50 16.64159 -22.94840 1986 ft 160 kts
2026-04-17 00:50 16.65264 -22.94854 1733 ft 158 kts
2026-04-17 00:50 16.66340 -22.94863 1469 ft 153 kts
2026-04-17 00:51 16.67406 -22.94869 1246 ft 153 kts 360°
2026-04-17 00:51 16.68389 -22.94879 1018 ft 132 kts
2026-04-17 00:51 16.69303 -22.94880 834 ft 133 kts 359°
2026-04-17 00:51 16.70226 -22.94885 663 ft 131 kts
2026-04-17 00:52 16.71135 -22.94899 472 ft 130 kts 359°
2026-04-17 00:52 16.72031 -22.94892 276 ft 129 kts 359°
2026-04-17 00:52 16.72928 -22.94894 206 ft 125 kts
2026-04-17 00:52 16.73657 -22.94895 196 ft 70 kts
2026-04-17 00:53 16.74027 -22.94898 192 ft 50 kts 359°
2026-04-17 00:53 16.74176 -22.94899 191 ft 1 kts
2026-04-17 00:53 16.74195 -22.94894 207 ft 5 kts 24°
2026-04-17 00:53 16.74227 -22.94859 191 ft 9 kts 56°
2026-04-17 00:54 16.74269 -22.94794 194 ft 12 kts 56°
2026-04-17 00:54 16.74300 -22.94708 187 ft 14 kts 128°
2026-04-17 00:54 16.74200 -22.94703 192 ft 16 kts 182°
2026-04-17 00:54 16.74082 -22.94704 196 ft 18 kts 178°
2026-04-17 00:55 16.73952 -22.94699 198 ft 20 kts 178°
2026-04-17 00:55 16.73810 -22.94697 214 ft 21 kts 180°
2026-04-17 00:55 16.73732 -22.94697 205 ft 8 kts 178°
2026-04-17 00:55 16.73668 -22.94695 208 ft 10 kts 178°
2026-04-17 00:56 16.73614 -22.94648 206 ft 13 kts 95°
2026-04-17 00:56 16.73549 -22.94603 206 ft 15 kts 179°
2026-04-17 00:56 16.73489 -22.94555 206 ft 4 kts 86°
2026-04-17 00:56 16.73491 -22.94548 206 ft 2 kts 76°
2026-04-17 00:57 16.73495 -22.94521 206 ft 5 kts 91°
2026-04-17 00:57 16.73495 -22.94503 206 ft 0 kts 90°